Hayward, WI

6:35 PM CDT on April 24, 2017 (GMT -0500)
Sawyer County

Weather History for KHYR - January, 2013

Change the Weather History Date:

Sunday, January 20, 2013

  Actual Average Record
Temperature  
Mean Temperature -4 °F -  
Max Temperature 1 °F 21 °F 37 °F (2017)
Min Temperature -9 °F -4 °F -20 °F (2000)
Degree Days  
Heating Degree Days 69    
Moisture  
Dew Point -10 °F    
Average Humidity 69    
Maximum Humidity 80    
Minimum Humidity 55    
Precipitation  
Precipitation 0.00 in - - ()
Sea Level Pressure  
Sea Level Pressure 30.27 in    
Wind  
Wind Speed 4 mph (West)    
Max Wind Speed 8 mph    
Max Gust Speed -    
Visibility 9 miles    
Events      
Averages and records for this station are not official NWS values.
T = Trace of Precipitation, MM = Missing Value Source: NWS Daily Summary

Daily Weather History Graph

Daily Weather History Graph

Search for Another Location

Airport or City:

Trip Planner

Search our weather history database for the weather conditions in past years. The results will help you decide how hot, cold, wet, or windy it might be!

Date:

Astronomy

Jan. 20, 2013 Rise Set
Actual Time 7:40 AM CST 4:54 PM CST
Civil Twilight 7:07 AM CST 5:27 PM CST
Nautical Twilight 6:30 AM CST 6:03 PM CST
Astronomical Twilight 5:54 AM CST 6:39 PM CST
Moon 11:56 AM CST (1/20) 2:10 AM CST (1/20)
Length of Visible Light 10h 20m
Length of Day
9h 14m
Waxing Gibbous, 66% of the Moon is Illuminated
Jan 20
Waxing Gibbous
Jan 26
Full
Feb 3
Last Quarter
Feb 10
New
Feb 17
First Quarter

Hourly Weather History & Observations

Time (CST) Temp. Windchill Dew Point Humidity Pressure Visibility Wind Dir Wind Speed Gust Speed Precip Events Conditions
12:53 AM -0.0 °F -11.6 °F -9.0 °F 66% 30.15 in 10.0 mi Variable 5.8 mph - N/A   Clear
1:53 AM -0.9 °F -11.0 °F -9.9 °F 66% 30.19 in 10.0 mi Variable 4.6 mph - N/A   Clear
2:53 AM -2.0 °F -10.1 °F -9.9 °F 69% 30.22 in 10.0 mi Variable 3.5 mph - N/A   Clear
3:53 AM -2.9 °F -11.2 °F -11.0 °F 68% 30.26 in 10.0 mi West 3.5 mph - N/A   Clear
4:17 AM -4.0 °F -12.4 °F -11.2 °F 71% 30.18 in 10.0 mi Variable 3.5 mph - N/A   Mostly Cloudy
4:53 AM -5.1 °F - -11.0 °F 76% 30.29 in 10.0 mi Calm Calm - N/A   Scattered Clouds
5:53 AM -6.0 °F - -11.9 °F 75% 30.31 in 10.0 mi Calm Calm - N/A   Clear
6:53 AM -7.1 °F - -13.0 °F 75% 30.34 in 10.0 mi Calm Calm - N/A   Clear
7:53 AM -9.9 °F - -16.1 °F 74% 30.35 in 10.0 mi Calm Calm - N/A   Clear
8:53 AM -5.1 °F -13.6 °F -11.9 °F 72% 30.35 in 10.0 mi Variable 3.5 mph - N/A   Clear
9:53 AM -2.9 °F -16.5 °F -11.9 °F 65% 30.37 in 10.0 mi Variable 6.9 mph - N/A   Clear
10:53 AM -0.9 °F -14.1 °F -11.9 °F 60% 30.38 in 10.0 mi West 6.9 mph - N/A   Clear
11:53 AM -0.0 °F -9.9 °F -11.9 °F 57% 30.36 in 10.0 mi Variable 4.6 mph - N/A   Overcast
12:53 PM 1.9 °F -10.6 °F -11.0 °F 55% 30.34 in 10.0 mi West 6.9 mph - N/A   Overcast
1:53 PM 1.9 °F -9.2 °F -9.0 °F 60% 30.32 in 6.0 mi West 5.8 mph - N/A   Haze
2:53 PM 1.9 °F -11.8 °F -8.0 °F 63% 30.31 in 7.0 mi WSW 8.1 mph - 0.00 in   Overcast
3:06 PM 1.4 °F -9.9 °F -7.6 °F 66% 30.20 in 9.0 mi Variable 5.8 mph - N/A   Overcast
3:31 PM 1.4 °F -12.5 °F -9.4 °F 61% 30.19 in 10.0 mi West 8.1 mph - N/A   Overcast
3:53 PM 1.9 °F -5.6 °F -9.0 °F 60% 30.30 in 10.0 mi Variable 3.5 mph - N/A   Overcast
4:09 PM 1.4 °F -8.3 °F -7.6 °F 66% 30.20 in 9.0 mi WNW 4.6 mph - N/A   Overcast
4:42 PM 1.4 °F -8.3 °F -7.6 °F 66% 30.20 in 5.0 mi West 4.6 mph - 0.00 in   Haze
4:53 PM 1.0 °F -10.3 °F -7.1 °F 69% 30.31 in 3.0 mi Variable 5.8 mph - 0.00 in   Haze
5:46 PM -0.4 °F - -5.8 °F 78% 30.18 in 5.0 mi Calm Calm - N/A   Haze
5:53 PM -0.9 °F - -7.1 °F 75% 30.30 in 8.0 mi Calm Calm - N/A   Overcast
6:16 PM -0.4 °F - -7.6 °F 72% 30.18 in 10.0 mi Calm Calm - N/A   Overcast
6:53 PM -0.9 °F -8.9 °F -7.1 °F 75% 30.29 in 10.0 mi Variable 3.5 mph - N/A   Overcast
7:53 PM -2.0 °F - -9.0 °F 72% 30.28 in 10.0 mi Calm Calm - N/A   Overcast
8:53 PM -5.1 °F - -9.9 °F 80% 30.26 in 10.0 mi Calm Calm - N/A   Mostly Cloudy
9:53 PM -2.9 °F - -9.0 °F 75% 30.25 in 8.0 mi Calm Calm - N/A   Overcast
10:53 PM -2.9 °F -13.3 °F -9.9 °F 72% 30.25 in 6.0 mi Variable 4.6 mph - N/A   Haze
11:42 PM -4.0 °F - -11.2 °F 71% 30.14 in 5.0 mi Calm Calm - N/A   Haze
11:53 PM -4.0 °F -16.3 °F -11.9 °F 69% 30.25 in 6.0 mi Variable 5.8 mph - N/A   Haze